Terminal Aerodrome Forecast
Issued by NWS

Home | Current Version | Previous Version | Graphics & Text | Print | Product List | Glossary On
Versions: 1 2 3 4 5 6 7 8 9 10 11 12 13 14
491
FTUS43 KICT 102009 AAA
TAFCNU
TAF AMD
KCNU 102009Z 1020/1118 21015KT P6SM SKC
     FM102300 23011KT P6SM SKC
     FM110200 VRB05KT P6SM SKC
     FM110900 01009KT P6SM FEW010=

USA.gov is the U.S. government's official web portal to all federal, state and local government web resources and services.